Weather History for Big Delta, AK

Change the Weather History Date:

Monday, May 5, 2014

  Actual Average Record
Temperature  
Mean Temperature 44 °F -  
Max Temperature 51 °F 47 °F 62 °F (2004)
Min Temperature 37 °F 29 °F 23 °F (2002)
Degree Days  
Heating Degree Days 21    
Moisture  
Dew Point 33 °F    
Average Humidity 69    
Maximum Humidity 86    
Minimum Humidity 38    
Precipitation  
Precipitation 0.00 in - - ()
Sea Level Pressure  
Sea Level Pressure 29.95 in    
Wind  
Wind Speed 9 mph (WNW)    
Max Wind Speed 16 mph    
Max Gust Speed -    
Visibility 10 miles    
Events      
Averages and records for this station are not official NWS values.
T = Trace of Precipitation, MM = Missing Value Source: NWS Daily Summary

Daily Weather History Graph

Daily Weather History Graph

Search for Another Location

Airport:

Trip Planner

Search our weather history database for the weather conditions in past years. The results will help you decide how hot, cold, wet, or windy it might be!

Date:

Astronomy

May. 05, 2014 Rise Set
Actual Time 5:01 AM AKDT 10:19 PM AKDT
Civil Twilight 3:47 AM AKDT 11:35 PM AKDT
Nautical Twilight 2:12 AM AKDT Sun does not rise
Astronomical Twilight Sun does not rise Sun does not rise
Moon 10:43 AM AKDT (5/5) 2:59 AM AKDT (5/5)
Length of Visible Light 19h 48m
Length of Day
17h 17m
Waxing Crescent, 38% of the Moon is Illuminated
May 5
Waxing Crescent
May 6
First Quarter
May 14
Full
May 21
Last Quarter
May 28
New

Hourly Weather History & Observations

Time (AKDT) Temp. Windchill Dew Point Humidity Pressure Visibility Wind Dir Wind Speed Gust Speed Precip Events Conditions
12:53 AM 43.0 °F 36.8 °F 36.0 °F 76% 29.96 in 10.0 mi West 11.5 mph - N/A   Overcast
1:53 AM 42.1 °F 36.6 °F 35.1 °F 76% 29.96 in 10.0 mi West 9.2 mph - N/A   Overcast
2:53 AM 41.0 °F 35.2 °F 35.1 °F 79% 29.96 in 10.0 mi West 9.2 mph - N/A   Overcast
3:39 AM 39.9 °F 33.4 °F 36.0 °F 86% 29.94 in 10.0 mi West 10.4 mph - N/A   Overcast
3:53 AM 39.9 °F 32.9 °F 35.1 °F 83% 29.97 in 10.0 mi West 11.5 mph - N/A   Overcast
4:19 AM 39.9 °F 33.9 °F 35.1 °F 83% 29.94 in 10.0 mi West 9.2 mph - N/A   Overcast
4:46 AM 39.0 °F 32.3 °F 34.0 °F 82% 29.94 in 10.0 mi West 10.4 mph - N/A   Overcast
4:53 AM 39.0 °F 32.8 °F 34.0 °F 82% 29.97 in 10.0 mi West 9.2 mph - N/A   Overcast
5:53 AM 37.9 °F 30.9 °F 33.1 °F 83% 29.97 in 10.0 mi WNW 10.4 mph - N/A   Overcast
6:53 AM 37.9 °F 30.5 °F 32.0 °F 79% 29.97 in 10.0 mi West 11.5 mph - N/A   Overcast
7:53 AM 37.0 °F 31.0 °F 30.9 °F 79% 29.98 in 10.0 mi West 8.1 mph - N/A   Overcast
8:53 AM 37.9 °F 31.5 °F 30.0 °F 73% 29.99 in 10.0 mi West 9.2 mph - N/A   Overcast
9:53 AM 37.4 °F 31.4 °F 30.2 °F 75% 29.94 in 10.0 mi WNW 8.1 mph - N/A   Overcast
10:53 AM 41.0 °F 39.0 °F 30.9 °F 67% 29.97 in 10.0 mi Variable 3.5 mph - N/A   Mostly Cloudy
11:44 AM 42.1 °F 40.2 °F 30.9 °F 65% 29.92 in 10.0 mi Variable 3.5 mph - N/A   Mostly Cloudy
11:53 AM 43.0 °F 38.8 °F 30.9 °F 62% 29.96 in 10.0 mi WNW 6.9 mph - N/A   Mostly Cloudy
12:53 PM 45.0 °F 41.2 °F 30.9 °F 58% 29.94 in 10.0 mi NW 6.9 mph - N/A   Mostly Cloudy
1:53 PM 46.0 °F 43.9 °F 32.0 °F 58% 29.93 in 10.0 mi West 4.6 mph - N/A   Mostly Cloudy
2:53 PM 48.0 °F - 33.1 °F 56% 29.92 in 10.0 mi Variable 4.6 mph - N/A   Overcast
3:53 PM 51.1 °F - 33.1 °F 50% 29.89 in 10.0 mi North 5.8 mph - N/A   Overcast
4:53 PM 51.1 °F - 33.1 °F 50% 29.89 in 10.0 mi NNW 8.1 mph - N/A   Overcast
5:53 PM 48.9 °F - 33.1 °F 54% 29.90 in 10.0 mi NW 12.7 mph - N/A   Overcast
6:53 PM 45.0 °F 38.2 °F 33.1 °F 63% 29.92 in 10.0 mi WNW 15.0 mph - N/A   Overcast
7:53 PM 42.1 °F 34.2 °F 32.0 °F 67% 29.95 in 10.0 mi WNW 16.1 mph - N/A   Overcast
8:53 PM 41.0 °F 32.8 °F 30.9 °F 67% 29.96 in 10.0 mi WNW 16.1 mph - N/A   Overcast
9:53 PM 41.0 °F 35.2 °F 32.0 °F 70% 29.96 in 10.0 mi WNW 9.2 mph - N/A   Overcast
10:53 PM 39.0 °F 33.4 °F 30.9 °F 73% 29.96 in 10.0 mi West 8.1 mph - N/A   Overcast
11:37 PM 37.9 °F 33.5 °F 30.0 °F 73% 29.90 in 10.0 mi West 5.8 mph - N/A   Mostly Cloudy
11:53 PM 37.0 °F 33.3 °F 30.0 °F 76% 29.96 in 10.0 mi West 4.6 mph - N/A   Partly Cloudy